Dewpoint
74 74 73 73 73 73 73 72 70 71 74 73 72 73 74 75 75 75 75 75 76 76 77 78 78 78 77 78 79 78 81 77 78 77 77 75 74 70 66 67 71 75
74 74 75 73 75 75 75 72 73 73 75 77 75 75 74 75 74 75 75 75 76 75 77 76 78 78 78 78 79 78 79 78 79 73 75 75 75 71 68 70 68 74
73 73 72 72 69 70 67 69 73 73 73 72 74 76 73 72 74 76 76 75 74 72 77 77 78 78 77 79 79 79 78 79 79 75 77 76 74 74 74 66 68 68
74 73 71 70 69 69 68 70 72 73 71 72 72 71 70 69 73 74 76 76 76 76 74 75 76 75 77 77 78 78 77 79 77 78 78 77 76 74 73 74 70 69
72 72 71 70 69 71 70 69 67 68 68 71 69 73 75 77 74 72 75 75 77 74 76 76 75 75 77 77 78 79 77 77 78 79 80 79 78 76 75 74 75 73
73 74 73 72 71 71 67 67 67 67 68 67 69 70 71 73 73 72 73 72 71 71 71 72 73 73 74 76 77 78 75 75 75 77 77 77 75 74 69 74 76 76
71 72 70 69 67 68 68 68 67 69 66 66 70 69 70 70 73 74 74 73 71 73 70 73 75 74 75 76 77 78 77 77 76 77 77 76 77 76 71 74 76 76
71 71 70 69 67 65 66 66 66 67 68 68 66 69 69 67 71 69 72 72 71 71 73 72 76 77 71 73 75 76 75 72 73 77 77 77 77 77 77 74 76 77
71 71 70 69 66 64 63 63 65 65 68 66 63 64 68 68 69 69 73 73 72 73 74 73 75 73 73 73 75 76 75 73 71 74 77 76 75 76 75 75 75 77
70 70 69 67 65 63 63 63 63 64 66 64 63 62 63 68 69 70 72 74 73 74 75 73 75 72 73 73 75 75 75 76 76 75 74 74 74 74 73 74 74 75
69 65 67 68 65 62 62 62 62 63 64 63 62 61 63 65 69 71 73 73 70 72 73 73 73 73 74 71 71 72 74 73 74 75 75 74 74 75 75 75 74 73
72 68 66 65 65 63 61 61 61 61 63 64 63 63 64 63 67 67 70 72 72 72 72 73 74 74 74 73 70 70 72 72 73 73 72 74 73 73 73 73 72 74
73 73 72 63 64 62 60 61 59 58 59 62 64 64 62 60 64 68 69 71 72 71 70 72 73 72 75 74 73 72 71 71 70 71 71 71 71 70 69 70 70 71
73 75 74 72 72 70 68 61 60 60 61 62 65 64 62 61 59 66 68 68 70 70 71 73 73 72 74 75 73 72 71 71 70 69 68 68 68 70 68 66 68 68
73 73 74 73 72 71 72 71 68 69 70 69 69 64 61 62 60 59 65 66 67 70 71 71 70 70 70 72 73 72 71 69 70 68 68 69 69 67 68 69 67 65
74 73 74 75 74 73 72 73 73 73 70 74 73 68 68 68 68 66 63 65 66 68 69 68 68 68 71 69 70 71 71 67 66 69 69 69 70 70 67 67 65 64
74 74 74 74 74 74 74 74 75 72 72 72 72 72 74 75 71 67 62 60 64 65 66 65 66 65 67 64 65 68 71 71 69 70 71 70 69 71 71 67 65 66
73 73 74 74 74 74 74 75 74 75 74 73 72 71 72 71 67 69 71 66 61 62 63 64 65 66 61 62 63 64 68 71 69 67 66 68 68 67 68 68 66 64
72 72 72 73 74 74 75 75 74 73 73 73 72 72 73 72 71 71 70 68 66 68 63 63 64 63 60 61 62 62 63 68 68 68 65 63 64 67 67 68 69 69
71 71 72 73 73 74 74 74 74 74 74 74 74 74 73 73 72 72 71 72 70 69 70 68 65 64 59 58 60 61 62 65 69 66 66 64 65 65 65 67 69 69
69 70 71 72 73 73 74 73 73 74 73 73 74 75 74 75 74 73 73 71 71 69 68 67 65 63 59 57 58 59 61 64 69 66 64 64 65 66 69 67 70 70
69 69 70 71 72 73 73 73 73 73 74 75 75 75 75 75 73 72 71 71 71 71 69 68 67 62 59 56 56 57 60 67 69 69 67 65 65 66 67 69 69 70
66 67 68 69 71 71 71 71 72 73 74 75 74 74 74 73 72 71 72 71 71 72 71 70 69 66 60 55 55 56 59 68 69 69 69 68 67 68 69 69 69 69
65 65 66 67 68 69 71 72 72 73 73 74 72 72 71 71 71 71 71 71 70 71 70 71 70 69 62 56 54 55 61 67 69 69 69 70 69 70 71 72 72 73
62 63 62 63 67 68 70 71 71 71 71 73 73 73 73 73 72 71 71 72 71 70 73 72 71 68 62 56 54 54 60 67 69 69 69 70 69 70 71 72 72 73
63 64 64 63 64 67 70 73 74 72 72 72 73 74 73 73 73 73 71 71 71 72 71 71 70 71 72 61 54 53 55 68 71 71 70 70 70 70 71 72 72 72